GW4159 Weather Reports


Display with metric or nautical units.
time (UTC)temp
F
wind
direction
speed
MPH
gust
MPH
rain 1hr
in
rain 24hr
in
rain mn
in
humidity
%
barometer
mb
20240518072019 0 306 4.0 9.0 0.00 0.00 0.00 1013.2
20240518071519 0 299 6.0 9.0 0.00 0.00 0.00 1013.3
20240518071016 0 312 3.0 8.0 0.00 0.00 0.00 1013.2
20240518070515 0 285 5.0 8.0 0.00 0.00 0.00 1013.2
20240518070014 0 291 3.0 9.0 0.00 0.00 0.00 1013.2
20240518065509 0 280 7.0 10.0 0.00 0.00 0.00 1013.1
20240518065008 0 258 6.0 10.0 0.00 0.00 0.00 1013.1
20240518064510 0 269 5.0 9.0 0.00 0.00 0.00 1013.0
20240518064005 0 271 6.0 11.0 0.00 0.00 0.00 1013.0
20240518063504 0 276 8.0 11.0 0.00 0.00 0.00 1013.0
20240518063002 0 276 8.0 12.0 0.00 0.00 0.00 1013.0
20240518062501 0 272 9.0 12.0 0.00 0.00 0.00 1013.0
20240518062101 0 283 9.0 11.0 0.00 0.00 0.00 1013.0
20240518061558 0 270 9.0 11.0 0.00 0.00 0.00 1012.9
20240518061057 0 264 7.0 11.0 0.00 0.00 0.00 1012.9
20240518060559 0 281 6.0 9.0 0.00 0.00 0.00 1012.9
20240518060054 0 272 6.0 9.0 0.00 0.00 0.00 1012.9
20240518055552 0 259 7.0 9.0 0.00 0.00 0.00 1012.8
20240518055048 0 266 6.0 8.0 0.00 0.00 0.00 1012.8
20240518054607 0 276 5.0 9.0 0.00 0.00 0.00 1012.7
20240518054514 0 264 5.0 9.0 0.00 0.00 0.00 1012.6
20240518054049 0 259 6.0 9.0 0.00 0.00 0.00 1012.6
20240518053546 0 276 6.0 9.0 0.00 0.00 0.00 1012.6
20240518053043 0 270 5.0 8.0 0.00 0.00 0.00 1012.7
20240518052541 0 256 5.0 8.0 0.00 0.00 0.00 1012.8
20240518052044 0 256 5.0 7.0 0.00 0.00 0.00 1012.9
20240518051539 0 254 3.0 8.0 0.00 0.00 0.00 1012.9
20240518051038 0 243 4.0 8.0 0.00 0.00 0.00 1013.0
20240518050539 0 256 4.0 9.0 0.00 0.00 0.00 1013.0
20240518050034 0 240 5.0 9.0 0.00 0.00 0.00 1013.1
20240518045531 0 239 5.0 9.0 0.00 0.00 0.00 1013.1
20240518045030 0 245 5.0 8.0 0.00 0.00 0.00 1013.0
20240518044528 0 232 5.0 8.0 0.00 0.00 0.00 1012.9
20240518044026 0 247 4.0 9.0 0.00 0.00 0.00 1012.9
20240518043524 0 257 6.0 9.0 0.00 0.00 0.00 1012.8
20240518043023 0 256 5.0 8.0 0.00 0.00 0.00 1012.7
20240518042522 0 247 4.0 8.0 0.00 0.00 0.00 1012.7
20240518042020 0 247 6.0 8.0 0.00 0.00 0.00 1012.7
20240518041519 0 262 6.0 9.0 0.00 0.00 0.00 1012.6
20240518041018 0 254 6.0 9.0 0.00 0.00 0.00 1012.5
20240518040516 0 244 7.0 9.0 0.00 0.00 0.00 1012.4
20240518040015 0 249 5.0 9.0 0.00 0.00 0.00 1012.4
20240518035510 0 245 6.0 9.0 0.00 0.00 0.00 1012.4
20240518035012 0 238 6.0 9.0 0.00 0.00 0.00 1012.4
20240518034511 0 245 4.0 8.0 0.00 0.00 0.00 1012.4
20240518034014 0 251 5.0 9.0 0.00 0.00 0.00 1012.4
20240518033506 0 248 5.0 9.0 0.00 0.00 0.00 1012.4
20240518033004 0 247 3.0 7.0 0.00 0.00 0.00 1012.4
20240518032502 0 247 4.0 9.0 0.00 0.00 0.00 1012.4
20240518032002 0 241 5.0 9.0 0.00 0.00 0.00 1012.4
20240518031600 0 248 4.0 10.0 0.00 0.00 0.00 1012.4
20240518031059 0 247 6.0 10.0 0.00 0.00 0.00 1012.4
20240518030556 0 235 3.0 9.0 0.00 0.00 0.00 1012.4
20240518030056 0 235 5.0 9.0 0.00 0.00 0.00 1012.4
20240518025607 0 241 4.0 9.0 0.00 0.00 0.00 1012.4
20240518025054 0 230 6.0 9.0 0.00 0.00 0.00 1012.3
20240518024548 0 241 4.0 9.0 0.00 0.00 0.00 1012.3
20240518024047 0 243 5.0 9.0 0.00 0.00 0.00 1012.3
20240518023546 0 243 6.0 8.0 0.00 0.00 0.00 1012.3
20240518023107 0 235 4.0 8.0 0.00 0.00 0.00 1012.3
20240518022542 0 236 4.0 9.0 0.00 0.00 0.00 1012.3
20240518022043 0 238 5.0 9.0 0.00 0.00 0.00 1012.3
20240518021545 0 234 6.0 10.0 0.00 0.00 0.00 1012.2
20240518021038 0 235 6.0 8.0 0.00 0.00 0.00 1012.2
20240518020537 0 235 5.0 7.0 0.00 0.00 0.00 1012.2
20240518020036 0 243 4.0 9.0 0.00 0.00 0.00 1012.2
20240518015536 0 235 5.0 11.0 0.00 0.00 0.00 1012.1
20240518015029 0 212 6.0 11.0 0.00 0.00 0.00 1012.1
20240518014528 0 219 6.0 10.0 0.00 0.00 0.00 1012.1
20240518014027 0 224 4.0 8.0 0.00 0.00 0.00 1012.1
20240518013526 0 212 5.0 9.0 0.00 0.00 0.00 1012.0
20240518013025 0 226 6.0 9.0 0.00 0.00 0.00 1012.0
20240518012522 0 213 5.0 9.0 0.00 0.00 0.00 1012.0
20240518012023 0 222 5.0 9.0 0.00 0.00 0.00 1012.0
20240518011522 0 235 4.0 9.0 0.00 0.00 0.00 1012.0
20240518011019 0 222 6.0 11.0 0.00 0.00 0.00 1011.9
20240518010517 0 225 6.0 11.0 0.00 0.00 0.00 1012.0
20240518010028 0 218 4.0 9.0 0.00 0.00 0.00 1012.0
20240518005514 0 199 4.0 8.0 0.00 0.00 0.00 1012.1
20240518005012 0 218 4.0 11.0 0.00 0.00 0.00 1012.0
20240518004509 0 233 6.0 10.0 0.00 0.00 0.00 1012.0
20240518004010 0 212 3.0 7.0 0.00 0.00 0.00 1012.0
20240518003506 0 224 4.0 6.0 0.00 0.00 0.00 1011.9
20240518003005 0 228 4.0 6.0 0.00 0.00 0.00 1011.8
20240518002503 0 246 4.0 8.0 0.00 0.00 0.00 1011.8
20240518002002 0 241 5.0 8.0 0.00 0.00 0.00 1011.8
20240518001600 0 237 5.0 10.0 0.00 0.00 0.00 1011.8
20240518001059 0 221 6.0 10.0 0.00 0.00 0.00 1011.9
20240518001004 0 210 6.0 9.0 0.00 0.00 0.00 1011.9
20240518000557 0 223 5.0 8.0 0.00 0.00 0.00 1011.9
20240518000502 0 217 5.0 7.0 0.00 0.00 0.00 1012.0
20240518000103 0 227 4.0 10.0 0.00 0.00 0.00 1011.9
20240517235554 0 223 6.0 10.0 0.00 0.00 0.00 1012.0
20240517235049 0 234 6.0 9.0 0.00 0.00 0.00 1011.9
20240517235005 0 232 6.0 9.0 0.00 0.00 0.00 1011.9
20240517234548 0 235 7.0 10.0 0.00 0.00 0.00 1012.0
20240517234047 0 218 5.0 8.0 0.00 0.00 0.00 1012.0
20240517233547 0 225 5.0 8.0 0.00 0.00 0.00 1012.0
20240517233045 0 224 4.0 9.0 0.00 0.00 0.00 1012.1
20240517232543 0 216 4.0 9.0 0.00 0.00 0.00 1012.1
20240517232043 0 231 4.0 7.0 0.00 0.00 0.00 1012.1
20240517231540 0 229 5.0 7.0 0.00 0.00 0.00 1012.0
20240517231038 0 217 4.0 8.0 0.00 0.00 0.00 1012.1
20240517230537 0 210 5.0 8.0 0.00 0.00 0.00 1012.1
20240517230042 0 206 5.0 8.0 0.00 0.00 0.00 1012.2
20240517225535 0 201 4.0 6.0 0.00 0.00 0.00 1012.2
20240517225033 0 224 2.0 6.0 0.00 0.00 0.00 1012.2
20240517224537 0 224 2.0 8.0 0.00 0.00 0.00 1012.2
20240517224022 0 216 4.0 8.0 0.00 0.00 0.00 1012.2
20240517223520 0 214 4.0 7.0 0.00 0.00 0.00 1012.2
20240517223033 0 211 4.0 8.0 0.00 0.00 0.00 1012.1
20240517222517 0 222 3.0 8.0 0.00 0.00 0.00 1012.2
20240517222015 0 198 4.0 7.0 0.00 0.00 0.00 1012.2
20240517221514 0 214 4.0 7.0 0.00 0.00 0.00 1012.2
20240517221012 0 219 4.0 7.0 0.00 0.00 0.00 1012.1
20240517220511 0 204 4.0 7.0 0.00 0.00 0.00 1012.1
20240517220010 0 192 4.0 7.0 0.00 0.00 0.00 1012.2
20240517215508 0 199 5.0 7.0 0.00 0.00 0.00 1012.2
20240517215007 0 179 4.0 7.0 0.00 0.00 0.00 1012.1
20240517214503 0 172 5.0 5.0 0.00 0.00 0.00 1012.0
20240517214001 0 172 3.0 5.0 0.00 0.00 0.00 1012.1
20240517213600 0 172 3.0 7.0 0.00 0.00 0.00 1012.1
20240517213059 0 190 4.0 7.0 0.00 0.00 0.00 1012.1
20240517212558 0 174 4.0 7.0 0.00 0.00 0.00 1012.0
20240517212056 0 177 4.0 7.0 0.00 0.00 0.00 1012.1
20240517211604 0 184 5.0 8.0 0.00 0.00 0.00 1012.0
20240517211053 0 197 6.0 8.0 0.00 0.00 0.00 1012.0
20240517210552 0 200 5.0 8.0 0.00 0.00 0.00 1012.0
20240517210051 0 186 5.0 8.0 0.00 0.00 0.00 1012.0
20240517205550 0 179 4.0 7.0 0.00 0.00 0.00 1012.0
20240517205047 0 188 4.0 7.0 0.00 0.00 0.00 1011.9
20240517204544 0 179 4.0 10.0 0.00 0.00 0.00 1011.9
20240517204051 0 170 4.0 10.0 0.00 0.00 0.00 1011.8
20240517203541 0 199 4.0 8.0 0.00 0.00 0.00 1011.8
20240517203041 0 196 4.0 8.0 0.00 0.00 0.00 1011.9
20240517202538 0 184 4.0 8.0 0.00 0.00 0.00 1011.8
20240517202035 0 176 4.0 7.0 0.00 0.00 0.00 1011.9
20240517201534 0 180 3.0 6.0 0.00 0.00 0.00 1011.8
20240517201033 0 164 4.0 9.0 0.00 0.00 0.00 1011.7
20240517200532 0 171 5.0 9.0 0.00 0.00 0.00 1011.6
20240517200035 0 167 5.0 11.0 0.00 0.00 0.00 1011.6
20240517195529 0 170 5.0 11.0 0.00 0.00 0.00 1011.5
20240517195027 0 148 6.0 12.0 0.00 0.00 0.00 1011.4
20240517194523 0 163 6.0 12.0 0.00 0.00 0.00 1011.4
20240517194024 0 149 6.0 14.0 0.00 0.00 0.00 1011.4
20240517193521 0 168 7.0 14.0 0.00 0.00 0.00 1011.2
20240517193020 0 150 6.0 14.0 0.00 0.00 0.00 1011.1
20240517192520 0 132 9.0 16.0 0.00 0.00 0.00 1011.0
20240517192017 0 144 10.0 16.0 0.00 0.00 0.00 1011.1
20240517191515 0 158 10.0 17.0 0.00 0.00 0.00 1011.1
20240517191014 0 131 10.0 16.0 0.00 0.00 0.00 1011.0
20240517190516 0 126 10.0 17.0 0.00 0.00 0.00 1010.9
20240517190020 0 152 12.0 17.0 0.00 0.00 0.00 1010.8
20240517185510 0 152 10.0 16.0 0.00 0.00 0.00 1010.7
20240517185009 0 132 8.0 15.0 0.00 0.00 0.00 1010.6
20240517184507 0 157 8.0 15.0 0.00 0.00 0.00 1010.6
20240517184041 0 162 7.0 16.0 0.00 0.00 0.00 1010.6
20240517183536 0 156 9.0 16.0 0.00 0.00 0.00 1010.5
20240517183034 0 149 7.0 14.0 0.00 0.00 0.00 1010.6
20240517182535 0 147 9.0 14.0 0.00 0.00 0.00 1010.6
20240517182030 0 160 6.0 11.0 0.00 0.00 0.00 1010.5
20240517181528 0 136 7.0 11.0 0.00 0.00 0.00 1010.4
20240517181127 0 197 7.0 12.0 0.00 0.00 0.00 1010.5
20240517180600 0 167 8.0 12.0 0.00 0.00 0.00 1010.4
20240517180107 0 164 8.0 13.0 0.00 0.00 0.00 1010.4
20240517175555 0 172 9.0 15.0 0.00 0.00 0.00 1010.4
20240517175051 0 148 9.0 18.0 0.00 0.00 0.00 1010.3
20240517174602 0 143 12.0 20.0 0.00 0.02 0.00 1010.3
20240517174020 0 143 12.0 20.0 0.00 0.02 0.00 1010.3
20240517173519 0 180 13.0 18.0 0.00 0.02 0.00 1010.3
20240517173018 0 137 11.0 18.0 0.00 0.02 0.00 1010.3
20240517172516 0 128 12.0 20.0 0.00 0.02 0.00 1010.3
20240517172014 0 139 13.0 20.0 0.00 0.02 0.00 1010.3
20240517171511 0 177 10.0 16.0 0.00 0.02 0.00 1010.3
20240517171007 0 159 10.0 15.0 0.00 0.02 0.00 1010.2
20240517170506 0 145 8.0 17.0 0.00 0.02 0.00 1010.2
20240517170005 0 119 9.0 17.0 0.00 0.02 0.00 1010.1
20240517165502 0 128 10.0 16.0 0.00 0.02 0.00 1009.9
20240517165002 0 130 12.0 16.0 0.00 0.02 0.00 1009.8
20240517164600 0 112 9.0 15.0 0.00 0.12 0.00 1009.8
20240517164506 0 142 9.0 15.0 0.00 0.12 0.00 1009.8
20240517164058 0 120 9.0 15.0 0.00 0.12 0.00 1009.8
20240517163557 0 158 8.0 12.0 0.00 0.12 0.00 1009.7
20240517163101 0 202 5.0 11.0 0.00 0.12 0.00 1009.8
20240517162554 0 156 4.0 9.0 0.00 0.12 0.00 1009.6
20240517162057 0 237 2.0 13.0 0.00 0.12 0.00 1009.4
20240517161558 0 245 9.0 15.0 0.00 0.12 0.00 1009.5
20240517161039 0 241 10.0 15.0 0.00 0.12 0.00 1009.4
20240517160539 0 226 7.0 17.0 0.00 0.12 0.00 1009.3
20240517160037 0 251 10.0 16.0 0.00 0.12 0.00 1009.4
20240517155542 0 241 10.0 15.0 0.00 0.12 0.00 1009.4
20240517155033 0 227 7.0 16.0 0.00 0.12 0.00 1009.4
20240517154604 0 233 10.0 17.0 0.00 0.12 0.00 1009.5
20240517154037 0 261 12.0 16.0 0.00 0.12 0.00 1009.4
20240517153534 0 260 7.0 14.0 0.00 0.12 0.00 1009.4
20240517153045 0 235 6.0 13.0 0.00 0.12 0.00 1009.4
20240517152526 0 228 8.0 14.0 0.00 0.12 0.00 1009.6
20240517152027 0 253 10.0 14.0 0.00 0.12 0.00 1009.6
20240517151524 0 250 8.0 14.0 0.00 0.12 0.00 1009.6
20240517151122 0 251 9.0 16.0 0.00 0.12 0.00 1009.6
20240517150559 0 241 9.0 16.0 0.00 0.12 0.00 1009.6
20240517150057 0 237 10.0 15.0 0.00 0.12 0.00 1009.6
20240517145556 0 216 9.0 14.0 0.00 0.12 0.00 1009.7
20240517145054 0 250 10.0 13.0 0.00 0.12 0.00 1009.7
20240517144553 0 220 11.0 16.0 0.00 0.12 0.12 1009.7
20240517144054 0 231 11.0 16.0 0.00 0.12 0.12 1009.7
20240517143543 0 223 7.0 18.0 0.00 0.12 0.12 1009.7
20240517143041 0 226 10.0 17.0 0.00 0.12 0.12 1009.8
20240517142539 0 247 12.0 19.0 0.00 0.12 0.12 1009.8
20240517142037 0 248 12.0 19.0 0.00 0.12 0.12 1009.8
20240517141557 0 203 9.0 19.0 0.00 0.12 0.12 1009.9
20240517141034 0 214 14.0 19.0 0.00 0.12 0.12 1010.0
20240517140533 0 218 11.0 18.0 0.00 0.12 0.12 1009.9
20240517140036 0 216 13.0 18.0 0.00 0.12 0.12 1009.9
20240517135532 0 228 7.0 22.0 0.00 0.12 0.12 1009.8
20240517135032 0 255 9.0 22.0 0.00 0.12 0.12 1009.9
20240517134529 0 222 13.0 20.0 0.00 0.12 0.12 1010.1
20240517134029 0 243 14.0 21.0 0.00 0.12 0.12 1009.9
20240517133522 0 248 13.0 23.0 0.00 0.12 0.12 1010.1
20240517133021 0 198 13.0 23.0 0.00 0.12 0.12 1010.0
20240517132519 0 251 9.0 17.0 0.00 0.12 0.12 1010.0
20240517132019 0 238 9.0 15.0 0.00 0.12 0.12 1010.0
20240517131518 0 230 10.0 17.0 0.00 0.12 0.12 1010.1
20240517131015 0 202 9.0 17.0 0.00 0.12 0.12 1010.0
20240517130515 0 231 10.0 15.0 0.00 0.12 0.12 1010.0
20240517130112 0 224 7.0 18.0 0.00 0.12 0.12 1010.1
20240517125512 0 216 9.0 18.0 0.00 0.12 0.12 1010.2
20240517125011 0 230 10.0 20.0 0.00 0.12 0.12 1010.1
20240517124509 0 172 11.0 20.0 0.00 0.12 0.12 1010.1
20240517124007 0 246 12.0 20.0 0.00 0.12 0.12 1010.2
20240517123503 0 235 9.0 20.0 0.00 0.12 0.12 1010.2
20240517123003 0 226 8.0 21.0 0.00 0.12 0.12 1010.3
20240517122501 0 236 13.0 21.0 0.00 0.12 0.12 1010.4
20240517122059 0 191 13.0 18.0 0.00 0.12 0.12 1010.3
20240517121558 0 237 11.0 21.0 0.00 0.12 0.12 1010.3
20240517121056 0 209 15.0 21.0 0.00 0.12 0.12 1010.3
20240517120555 0 227 9.0 16.0 0.00 0.12 0.12 1010.3
20240517120100 0 231 9.0 18.0 0.00 0.12 0.12 1010.3
20240517115551 0 233 10.0 21.0 0.00 0.12 0.12 1010.3
20240517115051 0 239 11.0 21.0 0.00 0.12 0.12 1010.3
20240517114558 0 211 13.0 19.0 0.00 0.12 0.12 1010.4
20240517114048 0 188 8.0 17.0 0.00 0.12 0.12 1010.4
20240517113546 0 223 9.0 21.0 0.00 0.12 0.12 1010.3
20240517113042 0 221 14.0 21.0 0.00 0.12 0.12 1010.3
20240517112542 0 196 11.0 21.0 0.00 0.12 0.12 1010.3
20240517112040 0 250 11.0 17.0 0.00 0.12 0.12 1010.3
20240517111543 0 204 10.0 17.0 0.00 0.12 0.12 1010.2
20240517111048 0 232 9.0 18.0 0.00 0.12 0.12 1010.2
20240517110535 0 223 12.0 18.0 0.00 0.12 0.12 1010.3
20240517110035 0 207 11.0 19.0 0.00 0.12 0.12 1010.1
20240517105532 0 208 14.0 26.0 0.00 0.12 0.12 1010.1
20240517105031 0 241 11.0 26.0 0.00 0.12 0.12 1010.0
20240517104546 0 216 12.0 21.0 0.00 0.12 0.12 1010.1
20240517104028 0 198 11.0 18.0 0.00 0.12 0.12 1010.0
20240517103526 0 235 9.0 19.0 0.00 0.12 0.12 1010.0
20240517103057 0 177 9.0 19.0 0.00 0.12 0.12 1010.0
20240517102555 0 204 12.0 19.0 0.00 0.12 0.12 1010.0
20240517102057 0 168 11.0 19.0 0.00 0.12 0.12 1010.0
20240517101557 0 206 12.0 21.0 0.00 0.12 0.12 1009.9
20240517101052 0 220 13.0 21.0 0.00 0.12 0.12 1009.8
20240517100558 0 208 9.0 17.0 0.00 0.12 0.12 1009.9
20240517100036 0 228 8.0 17.0 0.00 0.12 0.12 1009.9
20240517095536 0 194 11.0 24.0 0.00 0.12 0.12 1009.9
20240517095032 0 226 14.0 24.0 0.00 0.12 0.12 1009.8
20240517094531 0 210 14.0 22.0 0.00 0.12 0.12 1009.8
20240517094032 0 232 14.0 22.0 0.00 0.12 0.12 1009.8
20240517093529 0 214 14.0 20.0 0.00 0.12 0.12 1009.7
20240517093026 0 208 12.0 20.0 0.00 0.12 0.12 1009.7
20240517092525 0 202 10.0 18.0 0.00 0.12 0.12 1009.6
20240517092024 0 226 12.0 18.0 0.00 0.12 0.12 1009.6
20240517091534 0 195 12.0 18.0 0.00 0.12 0.12 1009.7
20240517091022 0 181 9.0 16.0 0.00 0.12 0.12 1009.6
20240517090519 0 174 10.0 16.0 0.00 0.12 0.12 1009.6
20240517090118 0 201 8.0 14.0 0.00 0.12 0.12 1009.6
20240517085546 0 222 10.0 17.0 0.00 0.12 0.12 1009.6
20240517085045 0 226 11.0 17.0 0.00 0.12 0.12 1009.6
20240517084544 0 187 10.0 15.0 0.00 0.12 0.12 1009.6
20240517084047 0 168 10.0 16.0 0.00 0.12 0.12 1009.4
20240517083541 0 173 9.0 17.0 0.00 0.12 0.12 1009.4
20240517083039 0 195 11.0 17.0 0.00 0.12 0.12 1009.4
20240517082509 0 165 8.0 18.0 0.00 0.12 0.12 1009.3
20240517082009 0 183 8.0 16.0 0.00 0.12 0.12 1009.3
20240517081506 0 158 10.0 18.0 0.00 0.12 0.12 1009.3
20240517081003 0 201 7.0 19.0 0.00 0.12 0.12 1009.3
20240517080502 0 197 7.0 16.0 0.00 0.12 0.12 1009.2
20240517080001 0 208 9.0 18.0 0.00 0.12 0.12 1009.2
20240517075605 0 214 12.0 18.0 0.00 0.12 0.12 1009.2
20240517075056 0 206 7.0 20.0 0.00 0.12 0.12 1009.1
20240517074555 0 204 10.0 15.0 0.00 0.12 0.12 1009.0
20240517074055 0 197 9.0 19.0 0.00 0.12 0.12 1009.0
20240517073554 0 218 7.0 19.0 0.00 0.12 0.12 1009.0
20240517073050 0 218 6.0 19.0 0.00 0.12 0.12 1008.9
20240517072549 0 210 12.0 19.0 0.00 0.12 0.12 1008.9